Regional Weather Roundup
Issued by NWS

Home | Current Version | Previous Version | Text Only | Print | Product List | Glossary Off
Versions: 1 2 3 4 5 6 7 8 9 10 11 12 13 14 15 16 17 18 19 20 21 22 23 24 25 26 27 28 29 30 31 32 33 34 35 36 37 38 39 40 41 42 43 44 45 46 47 48 49 50

000
ASUS43 KFSD 301202
RWRSD

WEATHER ROUNDUP FOR SOUTH DAKOTA
NATIONAL WEATHER SERVICE SIOUX FALLS SD
700 AM CDT TUE SEP 30 2014

NOTE: "FAIR" INDICATES FEW OR NO CLOUDS BELOW 12,000 FEET WITH NO
SIGNIFICANT WEATHER AND/OR OBSTRUCTIONS TO VISIBILITY.


SDZ001>005-009-010-012>017-301300-
NORTHWEST AND NORTH CENTRAL SOUTH DAKOTA

CITY           SKY/WX    TMP DP  RH WIND       PRES   REMARKS
BUFFALO          N/A     52  51  97 N13       29.58S
FAITH            N/A     57  56  96 E22G28    29.58F
MOBRIDGE       LGT RAIN  54  51  90 E22G30    29.68F
$$

SDZ012>016-024>037-041>051-057-063-072>074-301300-
SOUTHWEST AND SOUTH CENTRAL SOUTH DAKOTA

CITY           SKY/WX    TMP DP  RH WIND       PRES   REMARKS
RAPID CTY ARPT CLOUDY    54  53  97 N15       29.49F
PIERRE         CLOUDY    57  56  96 E25G32    29.60F
CUSTER         LGT RAIN  48  45  89 N14G24    29.53F
ELLSWORTH AFB  CLOUDY    53  53 100 N16G29    29.50
PHILIP         CLOUDY    61  57  87 E18G26    29.50F
PINE RIDGE     CLOUDY    52  50  93 SW16      29.39R
WINNER         PTSUNNY   62  58  86 SE18      29.63F
$$

SDZ004>011-016>023-039-040-301300-
NORTHEAST SOUTH DAKOTA

CITY           SKY/WX    TMP DP  RH WIND       PRES   REMARKS
ABERDEEN       MOCLDY    52  48  86 E10       29.80F
WATERTOWN      CLOUDY    47  45  93 SE12G22   29.88F
SISSETON         N/A     46  43  89 SE15G23   29.92F
$$

SDZ017-020-022-023-036>040-048>070-301300-
SOUTHEAST SOUTH DAKOTA

CITY           SKY/WX    TMP DP  RH WIND       PRES   REMARKS
SIOUX FALLS    MOCLDY    52  49  89 E15       29.88F
HURON          CLOUDY    54  50  86 E18G24    29.77F
CHAMBERLAIN    CLOUDY    58  57  95 SE21G28   29.68F
MITCHELL       CLOUDY    55  52  89 SE17G25   29.79F
YANKTON        CLOUDY    57  54  88 E14G22    29.82F
$$

ABBREVIATIONS USED IN REMARKS
   TC - TEMPERATURE IN CELSIUS
  WCI - WIND CHILL INDEX
   HX - HEAT INDEX
  VSB - VISIBILITY



USA.gov is the U.S. government's official web portal to all federal, state and local government web resources and services.